Retour au catalogue

COSMOS 712

ActifNavigationLEO
NORAD 7679·PAYLOAD·🇷🇺 Russia

Lancé Feb 28, 1975 depuis Plesetsk Cosmodrome

Loading…

Prochains Passages (prochaines 24 heures)

TLE

FraisSource: Space-Track

Époque: Sep 14, 2026, 06:00 UTC

1 07679U 75016B   26257.25024845 -.00000012  00000-0  25504-4 0  9994
2 07679  74.0076   2.9808 0049735 140.1112 245.5770 12.53466324358417

Suivez COSMOS 712 en temps réel avec AllMySat

Download on the App Store